GORIZONT 1 1 11158U 78118A 21020.92641264 -.00000216 00000-0 00000-0 0 9990 2 11158 11.6675 226.2729 3574388 252.8115 65.4406 1.00246728103151 GORIZONT 2 1 11440U 79062A 21021.78738189 -.00000091 00000-0 00000-0 0 9992 2 11440 10.4388 307.9189 0003885 333.4982 199.5359 1.00306994118248 GORIZONT 3 1 11648U 79105A 21021.72212931 -.00000331 00000-0 00000-0 0 9993 2 11648 10.5835 309.2373 0010490 200.2356 341.0981 1.00280629102707 GORIZONT 4 1 11841U 80049A 21020.70118747 -.00000151 00000-0 00000-0 0 9994 2 11841 11.6946 314.5054 0003757 2.3506 175.4969 0.98629605214052 GORIZONT 5 1 13092U 82020A 21021.03729789 -.00000120 00000-0 00000-0 0 9992 2 13092 12.6155 319.5717 0031040 197.6641 353.9434 0.98532844102155 GORIZONT 6 1 13624U 82103A 21021.15118583 -.00000249 00000-0 00000-0 0 9994 2 13624 11.5132 319.5011 0000962 54.8366 124.3563 1.00241469101160 GORIZONT 7 1 14160U 83066A 21021.12564678 -.00000183 00000-0 00000-0 0 9993 2 14160 13.0444 328.2687 0011668 317.3591 238.6894 0.98349443135347 GORIZONT 8 1 14532U 83118A 21020.99194072 -.00000028 00000-0 00000-0 0 9993 2 14532 13.1845 330.0192 0027433 130.3293 64.4780 0.98268838101112 GORIZONT 9 1 14940U 84041A 21021.42430543 .00000076 00000-0 00000-0 0 9999 2 14940 12.3888 328.2468 0001869 223.2401 137.5329 1.00249944102164 GORIZONT 10 1 15144U 84078A 21021.18478182 -.00000244 00000-0 00000-0 0 9998 2 15144 12.4673 329.2392 0003145 7.6955 175.1472 1.00293937134790 GORIZONT 11 1 15484U 85007A 21021.19332392 -.00000122 00000-0 00000-0 0 9996 2 15484 12.6060 331.1464 0002843 61.9033 142.6666 1.00285170132843 GORIZONT 12 1 16769U 86044A 21020.99124285 .00000121 00000-0 00000-0 0 9990 2 16769 13.1198 336.3341 0002824 337.7369 207.1044 1.00305983127479 GORIZONT 13 1 17083U 86090A 21021.58461791 -.00000126 00000-0 00000-0 0 9999 2 17083 14.8638 343.1093 0017335 331.6936 211.1860 0.96726507 99564 GORIZONT 14 1 17969U 87040A 21020.72203236 -.00000152 00000-0 00000-0 0 9990 2 17969 13.9982 334.8544 0027704 157.2619 21.4022 0.97659455100583 GORIZONT 15 1 19017U 88028A 21021.46389619 -.00000044 00000-0 00000-0 0 9995 2 19017 15.0706 346.1047 0033471 139.5645 66.0306 0.97827882100200 GORIZONT 16 1 19397U 88071A 21021.65821185 -.00000010 00000-0 00000-0 0 9997 2 19397 13.9374 344.8392 0016627 34.2944 159.6963 0.99987335118517 GORIZONT 17 1 19765U 89004A 21021.64546892 -.00000267 00000-0 00000-0 0 9995 2 19765 14.4080 348.0483 0020538 109.0889 56.6939 0.99069333116031 GORIZONT 18 1 20107U 89052A 21021.59694557 .00000018 00000-0 00000-0 0 9999 2 20107 14.4167 349.3344 0036527 307.6416 241.1130 0.99402011114807 GORIZONT 19 1 20263U 89081A 21021.79488419 -.00000364 00000-0 00000-0 0 9999 2 20263 14.1595 348.5999 0002929 314.2561 218.6214 1.00272754 27563 GORIZONT 20 1 20659U 90054A 21021.42788212 -.00000077 00000-0 00000-0 0 9995 2 20659 14.5232 351.4749 0003594 138.7532 218.2739 1.00222800111903 GORIZONT 21 1 20923U 90094A 21021.58381243 .00000089 00000-0 00000-0 0 9995 2 20923 14.5132 352.2704 0001566 242.4823 289.5167 1.00218599110667 GORIZONT 22 1 20953U 90102A 21021.27602659 -.00000001 00000-0 00000-0 0 9996 2 20953 14.4665 352.5987 0006002 355.3068 234.9814 1.00286943110583 GORIZONT 23 1 21533U 91046A 21021.76260685 -.00000212 00000-0 00000-0 0 9996 2 21533 15.1240 356.6001 0007117 322.1888 29.0491 0.98909246 27177 GORIZONT 24 1 21759U 91074A 21021.48200700 -.00000093 00000-0 00000-0 0 9995 2 21759 15.2291 358.4151 0015410 219.9518 5.9094 0.98442659105537 GORIZONT 25 1 21922U 92017A 21021.65750292 -.00000052 00000-0 00000-0 0 9995 2 21922 14.7829 357.8730 0029141 59.1375 119.8671 0.99858651105245 GORIZONT 26 1 22041U 92043A 21021.50164212 .00000065 00000-0 00000-0 0 9995 2 22041 14.9015 359.7656 0028828 226.5688 307.5021 0.99241109103891 GORIZONT 27 1 22245U 92082A 21021.51194826 -.00000040 00000-0 00000-0 0 9993 2 22245 14.8239 359.5468 0015782 350.5183 202.3717 1.00145143107359 GORIZONT 28 1 22880U 93069A 21021.43006301 -.00000066 00000-0 00000+0 0 9992 2 22880 14.8606 3.2506 0031353 112.6803 244.3795 0.99646784 99486 GORIZONT 29 1 22907U 93072A 21021.48335043 -.00000243 00000-0 00000+0 0 9996 2 22907 14.7846 2.7911 0013875 332.1579 243.2745 1.00123040 99440 GORIZONT 30 1 23108U 94030A 21021.27634410 -.00000026 00000-0 00000-0 0 9992 2 23108 14.7725 3.7281 0002189 333.9174 242.0566 1.00296103 97679 GORIZONT 31 1 23775U 96005A 21021.76522392 -.00000278 00000-0 00000-0 0 9994 2 23775 14.5116 9.7319 0015828 191.8410 160.3079 0.99897099 91344 GORIZONT 32 1 23880U 96034A 21021.06562838 .00000066 00000-0 00000-0 0 9999 2 23880 14.4444 10.2894 0011770 337.2822 213.6174 1.00142276 90265 GORIZONT 33 1 26372U 00029A 21021.70164507 .00000022 00000-0 00000-0 0 9991 2 26372 12.8535 21.0015 0003889 11.4434 159.6373 1.00276387 75640